Location: 相模原市立博物館
(35.5593°N, 139.3931°E)
Time: 03:06:03
(UTC+09:00)

ISS - Pass Details

Date: 06 August 2021
Orbit: 417 x 423 km, 51.6° (Epoch: 26 September)

Event Time Altitude Azimuth Distance (km) Brightness Sun altitude
Rises 19:15:59 0° 303° (WNW) 2,342 2.5 -7.2°
Reaches altitude 10° 19:18:11 10° 294° (WNW) 1,479 0.8 -7.6°
Maximum altitude 19:21:13 33° 228° (SW) 713 -2.4 -8.1°
Drops below altitude 10° 19:24:14 10° 162° (SSE) 1,477 -1.4 -8.7°
Enters shadow 19:24:57 - 158° (SSE) 1,748 -1.1 -8.8°
